Weather History for Aniak, AK

Change the Weather History Date:

Monday, October 8, 2012

  Actual Average Record
Temperature  
Mean Temperature 40 °F -  
Max Temperature 42 °F 38 °F 51 °F (2013)
Min Temperature 37 °F 26 °F 8 °F (2000)
Degree Days  
Heating Degree Days 26    
Moisture  
Dew Point 37 °F    
Average Humidity 88    
Maximum Humidity 93    
Minimum Humidity 82    
Precipitation  
Precipitation 0.00 in - - ()
Sea Level Pressure  
Sea Level Pressure 30.18 in    
Wind  
Wind Speed 7 mph (North)    
Max Wind Speed 12 mph    
Max Gust Speed 18 mph    
Visibility 7 miles    
Events      
Averages and records for this station are not official NWS values.
T = Trace of Precipitation, MM = Missing Value Source: NWS Daily Summary

Daily Weather History Graph

Daily Weather History Graph

Search for Another Location

Airport:

Trip Planner

Search our weather history database for the weather conditions in past years. The results will help you decide how hot, cold, wet, or windy it might be!

Date:

Astronomy

Oct. 08, 2012 Rise Set
Actual Time 9:04 AM AKDT 7:44 PM AKDT
Civil Twilight 8:21 AM AKDT 8:28 PM AKDT
Nautical Twilight 7:30 AM AKDT 9:18 PM AKDT
Astronomical Twilight 6:37 AM AKDT 10:11 PM AKDT
Moon 12:01 AM AKDT (10/8) 5:24 PM AKDT (10/8)
Length of Visible Light 12h 07m
Length of Day
10h 39m
Last Quarter, 45% of the Moon is Illuminated
Oct 8
Last Quarter
Oct 15
New
Oct 21
First Quarter
Oct 29
Full
Nov 6
Last Quarter

Hourly Weather History & Observations

Time (AKDT) Temp. Windchill Dew Point Humidity Pressure Visibility Wind Dir Wind Speed Gust Speed Precip Events Conditions
12:16 AM 42.8 °F 40.1 °F 39.2 °F 87% 30.10 in 6.0 mi North 4.6 mph - N/A   Overcast
12:36 AM 42.8 °F 40.1 °F 39.2 °F 87% 30.11 in 9.0 mi North 4.6 mph - N/A   Overcast
12:56 AM 42.8 °F 38.6 °F 39.2 °F 87% 30.11 in 7.0 mi NNW 6.9 mph - N/A   Overcast
1:16 AM 42.8 °F 40.1 °F 39.2 °F 87% 30.11 in 3.0 mi North 4.6 mph - N/A   Overcast
1:36 AM 42.8 °F 40.1 °F 39.2 °F 87% 30.11 in 2.0 mi North 4.6 mph - N/A   Overcast
1:56 AM 42.8 °F 41.1 °F 39.2 °F 87% 30.11 in 2.0 mi North 3.5 mph - N/A   Overcast
2:16 AM 42.8 °F 40.1 °F 39.2 °F 87% 30.11 in 1.8 mi North 4.6 mph - N/A   Overcast
2:36 AM 42.8 °F 40.1 °F 39.2 °F 87% 30.11 in 3.0 mi NNW 4.6 mph - N/A   Overcast
2:56 AM 42.8 °F 39.3 °F 39.2 °F 87% 30.11 in 9.0 mi North 5.8 mph - N/A   Overcast
3:16 AM 41.0 °F 37.1 °F 39.2 °F 93% 30.11 in 5.0 mi North 5.8 mph - N/A   Overcast
3:36 AM 42.8 °F 39.3 °F 39.2 °F 87% 30.12 in 5.0 mi North 5.8 mph - N/A   Overcast
3:56 AM 42.8 °F 39.3 °F 39.2 °F 87% 30.12 in 1.8 mi North 5.8 mph - N/A   Overcast
4:16 AM 41.0 °F 37.1 °F 39.2 °F 93% 30.11 in 2.0 mi North 5.8 mph - N/A   Overcast
4:36 AM 41.0 °F 35.8 °F 37.4 °F 87% 30.12 in 5.0 mi North 8.1 mph - N/A   Overcast
4:56 AM 41.0 °F 36.4 °F 37.4 °F 87% 30.12 in 6.0 mi North 6.9 mph - N/A   Overcast
5:16 AM 41.0 °F 36.4 °F 37.4 °F 87% 30.12 in 5.0 mi NNW 6.9 mph - N/A   Overcast
5:36 AM 41.0 °F 35.8 °F 37.4 °F 87% 30.12 in 5.0 mi NNW 8.1 mph - N/A   Overcast
5:56 AM 41.0 °F 36.4 °F 37.4 °F 87% 30.13 in 6.0 mi North 6.9 mph - N/A   Overcast
6:16 AM 39.2 °F 35.0 °F 37.4 °F 93% 30.13 in 10.0 mi North 5.8 mph - N/A   Overcast
6:36 AM 39.2 °F 33.6 °F 37.4 °F 93% 30.13 in 10.0 mi NNW 8.1 mph - N/A   Overcast
6:56 AM 41.0 °F 36.4 °F 37.4 °F 87% 30.14 in 10.0 mi NW 6.9 mph - N/A   Overcast
7:16 AM 39.2 °F 34.2 °F 37.4 °F 93% 30.14 in 10.0 mi NNW 6.9 mph - N/A   Overcast
7:36 AM 39.2 °F 33.6 °F 37.4 °F 93% 30.14 in 9.0 mi North 8.1 mph - N/A   Overcast
7:56 AM 39.2 °F 33.0 °F 37.4 °F 93% 30.14 in 10.0 mi NNW 9.2 mph - N/A   Overcast
8:16 AM 39.2 °F 33.0 °F 37.4 °F 93% 30.14 in 10.0 mi NNW 9.2 mph - N/A   Overcast
8:36 AM 39.2 °F 33.6 °F 35.6 °F 87% 30.15 in 10.0 mi North 8.1 mph - N/A   Overcast
8:56 AM 39.2 °F 33.6 °F 35.6 °F 87% 30.16 in 10.0 mi NNW 8.1 mph - N/A   Overcast
9:16 AM 39.2 °F 34.2 °F 35.6 °F 87% 30.16 in 10.0 mi North 6.9 mph - N/A   Overcast
9:36 AM 39.2 °F 33.6 °F 35.6 °F 87% 30.17 in 8.0 mi NNW 8.1 mph - N/A   Overcast
9:56 AM 39.2 °F 35.0 °F 35.6 °F 87% 30.17 in 4.0 mi North 5.8 mph - N/A   Overcast
10:16 AM 39.2 °F 34.2 °F 35.6 °F 87% 30.17 in 4.0 mi North 6.9 mph - N/A   Overcast
10:36 AM 39.2 °F 34.2 °F 35.6 °F 87% 30.18 in 9.0 mi NNW 6.9 mph - N/A   Overcast
10:56 AM 39.2 °F 33.6 °F 35.6 °F 87% 30.19 in 7.0 mi North 8.1 mph - N/A   Overcast
11:16 AM 37.4 °F 32.1 °F 35.6 °F 93% 30.19 in 4.0 mi North 6.9 mph - N/A   Overcast
11:36 AM 39.2 °F 35.9 °F 35.6 °F 87% 30.19 in 5.0 mi North 4.6 mph - N/A   Overcast
11:56 AM 39.2 °F 34.2 °F 35.6 °F 87% 30.20 in 10.0 mi NNW 6.9 mph - N/A   Overcast
12:16 PM 39.2 °F 34.2 °F 35.6 °F 87% 30.20 in 10.0 mi NNW 6.9 mph - N/A   Overcast
12:36 PM 39.2 °F 35.9 °F 35.6 °F 87% 30.21 in 10.0 mi North 4.6 mph - N/A   Overcast
12:56 PM 39.2 °F 33.6 °F 35.6 °F 87% 30.21 in 8.0 mi North 8.1 mph - N/A   Overcast
1:16 PM 39.2 °F 35.0 °F 35.6 °F 87% 30.22 in 7.0 mi North 5.8 mph - N/A   Overcast
1:36 PM 39.2 °F 35.0 °F 37.4 °F 93% 30.22 in 7.0 mi North 5.8 mph - N/A   Overcast
1:56 PM 39.2 °F 35.9 °F 37.4 °F 93% 30.22 in 5.0 mi North 4.6 mph - N/A   Overcast
2:16 PM 39.2 °F 35.9 °F 37.4 °F 93% 30.22 in 5.0 mi NNE 4.6 mph - N/A   Overcast
2:36 PM 39.2 °F 33.0 °F 37.4 °F 93% 30.23 in 5.0 mi North 9.2 mph - N/A   Overcast
2:56 PM 39.2 °F 34.2 °F 37.4 °F 93% 30.23 in 5.0 mi NNE 6.9 mph - N/A   Overcast
3:16 PM 39.2 °F 33.6 °F 37.4 °F 93% 30.23 in 6.0 mi North 8.1 mph - N/A   Overcast
3:36 PM 41.0 °F 35.2 °F 37.4 °F 87% 30.23 in 10.0 mi North 9.2 mph - N/A   Overcast
3:56 PM 41.0 °F 35.8 °F 37.4 °F 87% 30.22 in 10.0 mi NNE 8.1 mph - N/A   Overcast
4:36 PM 41.0 °F 34.7 °F 37.4 °F 87% 30.21 in 10.0 mi North 10.4 mph - N/A   Overcast
4:56 PM 41.0 °F 35.2 °F 37.4 °F 87% 30.21 in 10.0 mi North 9.2 mph - N/A   Overcast
5:16 PM 41.0 °F 34.3 °F 37.4 °F 87% 30.21 in 10.0 mi NNE 11.5 mph 18.4 mph N/A   Overcast
5:56 PM 41.0 °F 35.2 °F 37.4 °F 87% 30.20 in 10.0 mi NNE 9.2 mph - N/A   Overcast
6:16 PM 41.0 °F 35.2 °F 37.4 °F 87% 30.21 in 10.0 mi North 9.2 mph - N/A   Overcast
6:36 PM 41.0 °F 35.2 °F 37.4 °F 87% 30.21 in 6.0 mi North 9.2 mph - N/A   Overcast
6:56 PM 39.2 °F 32.5 °F 35.6 °F 87% 30.21 in 5.0 mi NNE 10.4 mph 18.4 mph N/A   Overcast
7:16 PM 39.2 °F 33.0 °F 35.6 °F 87% 30.21 in 7.0 mi NNE 9.2 mph - N/A   Overcast
7:36 PM 39.2 °F 33.0 °F 35.6 °F 87% 30.21 in 10.0 mi North 9.2 mph 16.1 mph N/A   Overcast
7:56 PM 39.2 °F 33.0 °F 35.6 °F 87% 30.21 in 10.0 mi NNE 9.2 mph 16.1 mph N/A   Overcast
8:16 PM 39.2 °F 33.6 °F 35.6 °F 87% 30.22 in 8.0 mi NNE 8.1 mph - N/A   Overcast
8:36 PM 39.2 °F 33.0 °F 35.6 °F 87% 30.22 in 10.0 mi North 9.2 mph - N/A   Overcast
8:56 PM 39.2 °F 33.6 °F 35.6 °F 87% 30.21 in 9.0 mi North 8.1 mph - N/A   Overcast
9:16 PM 39.2 °F 32.5 °F 37.4 °F 93% 30.22 in 6.0 mi North 10.4 mph 16.1 mph N/A   Overcast
9:36 PM 39.2 °F 34.2 °F 35.6 °F 87% 30.22 in 10.0 mi North 6.9 mph 16.1 mph N/A   Overcast
9:56 PM 39.2 °F 33.6 °F 35.6 °F 87% 30.22 in 9.0 mi North 8.1 mph - N/A   Overcast
10:16 PM 39.2 °F 32.5 °F 35.6 °F 87% 30.22 in 7.0 mi North 10.4 mph - N/A   Overcast
10:36 PM 39.2 °F 32.5 °F 35.6 °F 87% 30.22 in 5.0 mi North 10.4 mph - N/A   Overcast
10:56 PM 39.2 °F 33.0 °F 35.6 °F 87% 30.22 in 10.0 mi North 9.2 mph - N/A   Overcast
11:16 PM 39.2 °F 33.0 °F 37.4 °F 93% 30.22 in 10.0 mi North 9.2 mph - N/A   Overcast
11:36 PM 39.2 °F 33.0 °F 35.6 °F 87% 30.22 in 10.0 mi North 9.2 mph - N/A   Overcast
11:56 PM 39.2 °F 33.0 °F 35.6 °F 87% 30.22 in 10.0 mi North 9.2 mph - N/A   Overcast